{"data":{"norad_id":60050,"intl_designator":"2024-112N","name":"STARLINK-11137 [DTC]","alt_names":[],"object_type":"PAYLOAD","status":"ACTIVE","operator":null,"country":"US","launch_date":"2024-06-08","launch_site_code":"AFWTR","launch_vehicle":null,"mission":null,"orbit_class":"UNKNOWN","rcs_meters":null,"size_class":null,"mass_kg":null,"dimensions":null,"purposes":["comms"],"wikipedia_slug":null,"has_3d_model":false,"image_url":null,"decayed_at":null,"tle_current":{"epoch":"2026-05-25T00:29:35.193408Z","epoch_age_seconds":70591,"freshness":"FRESH","line1":"1 60050U 24112N   26145.02054622 -.00000326  00000+0  21665-5 0  9996","line2":"2 60050  53.1591 249.6916 0000944  56.1034 304.0073 15.69714864112978","mean_motion":15.69714864,"eccentricity":9.44e-5,"inclination_deg":53.1591,"raan_deg":249.6916,"arg_perigee_deg":56.1034,"mean_anomaly_deg":304.0073,"bstar":2.1665e-6,"rev_number":11297,"period_min":91.736405956592,"perigee_km":359.07677852546,"apogee_km":360.34888457366,"semimajor_km":6737.8498315496,"source":"CELESTRAK","updated_at":"2026-05-25T13:38:19.154596Z"}}}